When you browse on this site, cookies collect data to enhance your experience and personalize the content and advertising you see.
Visit our Privacy Policy to learn more. By continuing to use the site, you agree to this use of cookies and data.
  • In Latvia
  • List of Countries
  • For 7 days
  • Water Temperature
  • Weather Map
  • Weather Widgets
  • user-avatar
    Login

    Hourly Weather Córdoba

    Today, 16 December, Monday

    Time Temperature Precipitation Wind Pressure Humidity
    00:00 +21°C° 0 mm 2 mps 722 mmHg 38%
    01:00 +21°C° 0 mm 2 mps 722 mmHg 35%
    02:00 +20°C° 0 mm 2 mps 722 mmHg 31%
    03:00 +20°C° 0 mm 2 mps 722 mmHg 30%
    04:00 +20°C° 0 mm 2 mps 721 mmHg 28%
    05:00 +20°C° 0 mm 2 mps 721 mmHg 26%
    06:00 +21°C° 0 mm 2 mps 722 mmHg 25%
    07:00 +24°C° 0 mm 2 mps 723 mmHg 23%
    08:00 +26°C° 0 mm 2 mps 723 mmHg 22%
    09:00 +27°C° 0 mm 2 mps 723 mmHg 21%
    10:00 +28°C° 0 mm 2 mps 723 mmHg 20%
    11:00 +29°C° 0 mm 2 mps 723 mmHg 18%
    12:00 +30°C° 0 mm 2 mps 723 mmHg 19%
    13:00 +31°C° 0 mm 2 mps 722 mmHg 19%
    14:00 +31°C° 0 mm 2 mps 722 mmHg 19%
    15:00 +31°C° 0 mm 2 mps 722 mmHg 20%
    16:00 +31°C° 0 mm 2 mps 721 mmHg 20%
    17:00 +31°C° 0 mm 2 mps 721 mmHg 21%
    18:00 +28°C° 0 mm 2 mps 721 mmHg 28%
    19:00 +26°C° 0 mm 3 mps 721 mmHg 36%
    20:00 +23°C° 0 mm 4 mps 722 mmHg 43%
    21:00 +22°C° 0 mm 4 mps 722 mmHg 42%
    22:00 +22°C° 0 mm 3 mps 722 mmHg 41%
    23:00 +22°C° 0 mm 3 mps 722 mmHg 40%

    Tomorrow, 17 December, Tuesday

    Time Temperature Precipitation Wind Pressure Humidity
    00:00 +21°C° 0 mm 3 mps 722 mmHg 39%
    01:00 +21°C° 0 mm 3 mps 722 mmHg 38%
    02:00 +21°C° 0 mm 3 mps 722 mmHg 38%
    03:00 +21°C° 0 mm 3 mps 721 mmHg 37%
    04:00 +21°C° 0 mm 3 mps 721 mmHg 36%
    05:00 +20°C° 0 mm 2 mps 721 mmHg 36%
    06:00 +24°C° 0 mm 2 mps 722 mmHg 32%
    07:00 +26°C° 0 mm 2 mps 722 mmHg 29%
    08:00 +29°C° 0 mm 2 mps 723 mmHg 26%
    09:00 +31°C° 0 mm 2 mps 723 mmHg 22%
    10:00 +33°C° 0 mm 3 mps 723 mmHg 18%
    11:00 +35°C° 0 mm 4 mps 723 mmHg 14%
    12:00 +35°C° 0 mm 4 mps 722 mmHg 13%
    13:00 +36°C° 0 mm 5 mps 722 mmHg 13%
    14:00 +36°C° 0 mm 5 mps 721 mmHg 13%
    15:00 +36°C° 0 mm 6 mps 720 mmHg 14%
    16:00 +35°C° 0 mm 6 mps 720 mmHg 15%
    17:00 +34°C° 0 mm 6 mps 719 mmHg 16%
    18:00 +32°C° 0 mm 5 mps 719 mmHg 20%
    19:00 +28°C° 0 mm 5 mps 720 mmHg 24%
    20:00 +26°C° 0 mm 4 mps 720 mmHg 28%
    21:00 +25°C° 0 mm 3 mps 720 mmHg 29%
    22:00 +24°C° 0 mm 3 mps 721 mmHg 30%
    23:00 +22°C° 0 mm 3 mps 721 mmHg 30%

    Day after tomorrow, 18 December, Wednesday

    Time Temperature Precipitation Wind Pressure Humidity
    00:00 +22°C° 0 mm 3 mps 721 mmHg 32%
    01:00 +22°C° 0 mm 3 mps 721 mmHg 33%
    02:00 +22°C° 0 mm 3 mps 720 mmHg 34%
    03:00 +21°C° 0 mm 3 mps 720 mmHg 36%
    04:00 +21°C° 0 mm 3 mps 720 mmHg 39%
    05:00 +21°C° 0 mm 3 mps 720 mmHg 41%
    06:00 +23°C° 0 mm 4 mps 721 mmHg 40%
    07:00 +26°C° 0 mm 5 mps 722 mmHg 39%
    08:00 +28°C° 0 mm 6 mps 722 mmHg 38%
    09:00 +30°C° 0 mm 7 mps 722 mmHg 35%
    10:00 +32°C° 0 mm 7 mps 722 mmHg 32%
    11:00 +34°C° 0 mm 7 mps 722 mmHg 29%
    12:00 +34°C° 0 mm 7 mps 721 mmHg 28%
    13:00 +35°C° 0 mm 7 mps 720 mmHg 28%
    14:00 +36°C° 0 mm 7 mps 720 mmHg 27%
    15:00 +35°C° 0 mm 7 mps 719 mmHg 28%
    16:00 +35°C° 0 mm 7 mps 719 mmHg 29%
    17:00 +35°C° 0 mm 7 mps 718 mmHg 29%
    18:00 +32°C° 0 mm 6 mps 719 mmHg 33%
    19:00 +29°C° 0 mm 5 mps 719 mmHg 37%
    20:00 +27°C° 0 mm 4 mps 719 mmHg 40%
    21:00 +26°C° 0 mm 3 mps 719 mmHg 43%
    22:00 +25°C° 0 mm 2 mps 720 mmHg 47%
    23:00 +24°C° 0 mm 2 mps 720 mmHg 50%

    19 December, Thursday

    Time Temperature Precipitation Wind Pressure Humidity
    00:00 +24°C° 0 mm 2 mps 720 mmHg 51%
    01:00 +23°C° 0 mm 2 mps 719 mmHg 52%
    02:00 +23°C° 0 mm 1 mps 719 mmHg 53%
    03:00 +23°C° 0 mm 2 mps 719 mmHg 52%
    04:00 +23°C° 0 mm 2 mps 719 mmHg 51%
    05:00 +23°C° 0 mm 2 mps 719 mmHg 50%
    06:00 +25°C° 0 mm 3 mps 719 mmHg 45%
    07:00 +27°C° 0 mm 4 mps 720 mmHg 39%
    08:00 +29°C° 0 mm 4 mps 720 mmHg 33%
    09:00 +32°C° 0 mm 5 mps 720 mmHg 30%
    10:00 +34°C° 0 mm 6 mps 720 mmHg 27%
    11:00 +36°C° 0 mm 6 mps 719 mmHg 24%
    12:00 +38°C° 0 mm 6 mps 719 mmHg 24%
    13:00 +39°C° 0 mm 6 mps 718 mmHg 24%
    14:00 +40°C° 0 mm 7 mps 718 mmHg 23%
    15:00 +40°C° 0 mm 7 mps 717 mmHg 23%
    16:00 +40°C° 0 mm 7 mps 717 mmHg 24%
    17:00 +40°C° 0 mm 7 mps 716 mmHg 24%
    18:00 +36°C° 0 mm 6 mps 716 mmHg 28%
    19:00 +34°C° 0 mm 5 mps 716 mmHg 32%
    20:00 +32°C° 0 mm 4 mps 716 mmHg 36%
    21:00 +30°C° 0 mm 3 mps 717 mmHg 39%
    22:00 +29°C° 0 mm 2 mps 717 mmHg 42%
    23:00 +27°C° 0 mm 1 mps 717 mmHg 45%

    20 December, Friday

    Time Temperature Precipitation Wind Pressure Humidity
    00:00 +27°C° 0 mm 1 mps 717 mmHg 47%
    01:00 +27°C° 0 mm 1 mps 717 mmHg 48%
    02:00 +26°C° 0 mm 1 mps 717 mmHg 49%
    03:00 +25°C° 0.2 mm 3 mps 717 mmHg 61%
    04:00 +22°C° 0.2 mm 5 mps 718 mmHg 74%
    05:00 +20°C° 0.2 mm 7 mps 718 mmHg 86%
    06:00 +20°C° 0.1 mm 7 mps 719 mmHg 83%
    07:00 +20°C° 0.1 mm 7 mps 720 mmHg 80%
    08:00 +20°C° 0.1 mm 7 mps 721 mmHg 77%
    09:00 +20°C° 0.6 mm 7 mps 721 mmHg 76%
    10:00 +20°C° 0.6 mm 7 mps 722 mmHg 74%
    11:00 +20°C° 0.6 mm 6 mps 722 mmHg 73%
    12:00 +20°C° 0.4 mm 6 mps 722 mmHg 72%
    13:00 +21°C° 0.4 mm 5 mps 722 mmHg 71%
    14:00 +21°C° 0.4 mm 5 mps 722 mmHg 70%
    15:00 +22°C° 0 mm 4 mps 722 mmHg 67%
    16:00 +22°C° 0 mm 4 mps 722 mmHg 64%
    17:00 +23°C° 0 mm 4 mps 721 mmHg 61%
    18:00 +22°C° 0 mm 3 mps 722 mmHg 65%
    19:00 +20°C° 0 mm 2 mps 722 mmHg 69%
    20:00 +20°C° 0 mm 1 mps 722 mmHg 73%
    21:00 +20°C° 0 mm 1 mps 723 mmHg 73%
    22:00 +19°C° 0 mm 2 mps 723 mmHg 74%
    23:00 +19°C° 0 mm 2 mps 724 mmHg 74%

    21 December, Saturday

    Time Temperature Precipitation Wind Pressure Humidity
    00:00 +19°C° 0 mm 2 mps 724 mmHg 68%
    01:00 +19°C° 0 mm 2 mps 723 mmHg 63%
    02:00 +19°C° 0 mm 2 mps 723 mmHg 57%
    03:00 +18°C° 0 mm 2 mps 723 mmHg 59%
    04:00 +18°C° 0 mm 2 mps 723 mmHg 61%
    05:00 +17°C° 0 mm 3 mps 724 mmHg 63%
    06:00 +19°C° 0 mm 3 mps 724 mmHg 65%
    07:00 +20°C° 0 mm 3 mps 725 mmHg 67%
    08:00 +21°C° 0 mm 4 mps 725 mmHg 69%
    09:00 +22°C° 0 mm 4 mps 725 mmHg 60%
    10:00 +25°C° 0 mm 4 mps 725 mmHg 51%
    11:00 +27°C° 0 mm 4 mps 725 mmHg 43%
    12:00 +28°C° 0 mm 4 mps 724 mmHg 37%
    13:00 +29°C° 0 mm 4 mps 724 mmHg 31%
    14:00 +30°C° 0 mm 4 mps 723 mmHg 25%
    15:00 +30°C° 0 mm 5 mps 723 mmHg 24%
    16:00 +29°C° 0 mm 5 mps 723 mmHg 23%
    17:00 +29°C° 0 mm 5 mps 722 mmHg 22%
    18:00 +27°C° 0 mm 4 mps 723 mmHg 24%
    19:00 +25°C° 0 mm 3 mps 723 mmHg 26%
    20:00 +23°C° 0 mm 2 mps 724 mmHg 28%
    21:00 +21°C° 0 mm 2 mps 724 mmHg 30%
    22:00 +20°C° 0 mm 1 mps 725 mmHg 33%
    23:00 +19°C° 0 mm 1 mps 725 mmHg 35%
    Show more